Time,TemperatureF,DewpointF,PressureIn,WindDirection,WindDirectionDegrees,WindSpeedMPH,WindSpeedGustMPH,Humidity,HourlyPrecipIn,Conditions,Clouds,dailyrainin,SoftwareType,DateUTC
2013-07-30 00:03:00,57.0,54.0,30.12,NW,325,0.0,-999.0,90,-99.99,,,-99.99,,2013-07-30 04:03:00,
2013-07-30 00:13:00,57.0,54.0,30.12,NW,325,0.0,-999.0,91,-99.99,,,-99.99,,2013-07-30 04:13:00,
2013-07-30 00:23:00,57.0,54.0,30.12,NW,325,0.0,-999.0,91,-99.99,,,-99.99,,2013-07-30 04:23:00,
2013-07-30 00:33:00,57.0,54.0,30.12,NW,325,0.0,-999.0,91,-99.99,,,-99.99,,2013-07-30 04:33:00,
2013-07-30 00:43:00,56.0,54.0,30.12,NW,325,0.0,-999.0,92,-99.99,,,-99.99,,2013-07-30 04:43:00,
2013-07-30 00:53:00,56.0,54.0,30.12,NW,325,0.0,-999.0,93,-99.99,,,-99.99,,2013-07-30 04:53:00,
2013-07-30 01:03:00,56.0,54.0,30.12,NW,325,0.0,-999.0,93,-99.99,,,-99.99,,2013-07-30 05:03:00,
2013-07-30 01:13:00,55.0,53.0,30.13,NW,325,0.0,-999.0,93,-99.99,,,-99.99,,2013-07-30 05:13:00,
2013-07-30 01:23:00,55.0,53.0,30.13,NW,325,0.0,-999.0,94,-99.99,,,-99.99,,2013-07-30 05:23:00,
2013-07-30 01:45:00,55.0,53.0,30.13,NW,325,0.0,-999.0,94,-99.99,,,-99.99,,2013-07-30 05:45:00,
2013-07-30 02:03:00,54.0,53.0,30.13,NW,325,0.0,-999.0,95,-99.99,,,-99.99,,2013-07-30 06:03:00,
2013-07-30 02:13:00,55.0,54.0,30.14,NW,325,0.0,-999.0,95,-99.99,,,-99.99,,2013-07-30 06:13:00,
2013-07-30 02:23:00,54.0,53.0,30.14,NW,325,0.0,-999.0,95,-99.99,,,-99.99,,2013-07-30 06:23:00,
2013-07-30 02:33:00,54.0,53.0,30.13,NW,325,0.0,-999.0,95,-99.99,,,-99.99,,2013-07-30 06:33:00,
2013-07-30 02:43:00,54.0,53.0,30.13,NW,325,0.0,-999.0,95,-99.99,,,-99.99,,2013-07-30 06:43:00,
2013-07-30 02:53:00,54.0,53.0,30.13,NW,325,0.0,-999.0,95,-99.99,,,-99.99,,2013-07-30 06:53:00,
2013-07-30 03:03:00,54.0,52.0,30.13,NW,325,0.0,-999.0,94,-99.99,,,-99.99,,2013-07-30 07:03:00,
2013-07-30 03:13:00,54.0,52.0,30.13,NW,325,0.0,-999.0,94,-99.99,,,-99.99,,2013-07-30 07:13:00,
2013-07-30 03:23:00,52.0,50.0,30.13,NW,325,1.0,-999.0,94,-99.99,,,-99.99,,2013-07-30 07:23:00,
2013-07-30 03:33:00,52.0,51.0,30.13,NW,325,0.0,-999.0,95,-99.99,,,-99.99,,2013-07-30 07:33:00,
2013-07-30 03:43:00,52.0,51.0,30.13,NW,325,0.0,-999.0,95,-99.99,,,-99.99,,2013-07-30 07:43:00,
2013-07-30 03:53:00,52.0,51.0,30.14,NW,325,0.0,-999.0,96,-99.99,,,-99.99,,2013-07-30 07:53:00,
2013-07-30 04:03:00,53.0,52.0,30.14,NW,325,0.0,-999.0,95,-99.99,,,-99.99,,2013-07-30 08:03:00,
2013-07-30 04:13:00,53.0,52.0,30.14,NW,325,0.0,-999.0,95,-99.99,,,-99.99,,2013-07-30 08:13:00,
2013-07-30 04:23:00,53.0,52.0,30.14,NW,325,0.0,-999.0,96,-99.99,,,-99.99,,2013-07-30 08:23:00,
2013-07-30 04:33:00,53.0,52.0,30.14,NW,325,0.0,-999.0,96,-99.99,,,-99.99,,2013-07-30 08:33:00,
2013-07-30 04:43:00,52.0,51.0,30.14,NW,325,0.0,-999.0,95,-99.99,,,-99.99,,2013-07-30 08:43:00,
2013-07-30 04:53:00,52.0,51.0,30.13,NW,325,0.0,-999.0,96,-99.99,,,-99.99,,2013-07-30 08:53:00,
2013-07-30 05:03:00,52.0,51.0,30.14,NW,325,0.0,-999.0,96,-99.99,,,-99.99,,2013-07-30 09:03:00,
2013-07-30 05:13:00,52.0,51.0,30.14,NW,325,0.0,-999.0,96,-99.99,,,-99.99,,2013-07-30 09:13:00,
2013-07-30 05:33:00,53.0,52.0,30.14,NW,325,0.0,-999.0,96,-99.99,,,-99.99,,2013-07-30 09:33:00,
2013-07-30 05:43:00,52.0,51.0,30.15,NW,325,0.0,-999.0,96,-99.99,,,-99.99,,2013-07-30 09:43:00,
2013-07-30 05:53:00,52.0,51.0,30.15,NW,325,0.0,-999.0,96,-99.99,,,-99.99,,2013-07-30 09:53:00,
2013-07-30 06:03:00,52.0,51.0,30.15,NW,325,0.0,-999.0,96,-99.99,,,-99.99,,2013-07-30 10:03:00,
2013-07-30 06:12:00,52.0,51.0,30.15,NW,325,0.0,-999.0,96,-99.99,,,-99.99,,2013-07-30 10:12:00,
2013-07-30 06:32:00,52.0,51.0,30.15,NW,325,0.0,-999.0,96,-99.99,,,-99.99,,2013-07-30 10:32:00,
2013-07-30 06:44:00,51.0,50.0,30.15,NW,325,0.0,-999.0,96,-99.99,,,-99.99,,2013-07-30 10:44:00,
2013-07-30 07:02:00,51.0,50.0,30.16,NW,325,0.0,-999.0,96,-99.99,,,-99.99,,2013-07-30 11:02:00,
2013-07-30 07:11:00,51.0,50.0,30.16,NW,325,0.0,-999.0,96,-99.99,,,-99.99,,2013-07-30 11:11:00,
2013-07-30 07:33:00,51.0,50.0,30.16,NW,325,0.0,-999.0,96,-99.99,,,-99.99,,2013-07-30 11:33:00,
2013-07-30 07:43:00,52.0,51.0,30.17,NW,325,0.0,-999.0,96,-99.99,,,-99.99,,2013-07-30 11:43:00,
2013-07-30 08:33:00,56.0,54.0,30.18,NW,325,0.0,-999.0,94,-99.99,,,-99.99,,2013-07-30 12:33:00,
2013-07-30 08:42:00,57.0,55.0,30.18,NW,325,0.0,-999.0,93,-99.99,,,-99.99,,2013-07-30 12:42:00,
2013-07-30 08:53:00,57.0,55.0,30.18,NW,325,0.0,-999.0,93,-99.99,,,-99.99,,2013-07-30 12:53:00,
2013-07-30 09:22:00,61.0,57.0,30.18,NW,325,0.0,-999.0,87,-99.99,,,-99.99,,2013-07-30 13:22:00,
2013-07-30 09:33:00,62.0,57.0,30.18,NW,325,0.0,-999.0,83,-99.99,,,-99.99,,2013-07-30 13:33:00,
2013-07-30 09:43:00,64.0,59.0,30.18,NW,325,1.0,-999.0,83,-99.99,,,-99.99,,2013-07-30 13:43:00,
2013-07-30 10:02:00,64.0,58.0,30.18,NW,325,1.0,-999.0,81,-99.99,,,-99.99,,2013-07-30 14:02:00,
2013-07-30 10:22:00,65.0,55.0,30.18,NW,325,0.0,-999.0,69,-99.99,,,-99.99,,2013-07-30 14:22:00,
2013-07-30 10:33:00,66.0,56.0,30.18,NW,325,1.0,-999.0,69,-99.99,,,-99.99,,2013-07-30 14:33:00,
2013-07-30 10:43:00,67.0,55.0,30.17,SSW,201,1.0,-999.0,65,-99.99,,,-99.99,,2013-07-30 14:43:00,
2013-07-30 10:53:00,67.0,55.0,30.17,SSW,201,1.0,-999.0,65,-99.99,,,-99.99,,2013-07-30 14:53:00,
2013-07-30 11:02:00,68.0,56.0,30.17,ENE,75,1.0,-999.0,65,-99.99,,,-99.99,,2013-07-30 15:02:00,
2013-07-30 11:33:00,67.0,57.0,30.17,NE,41,3.0,-999.0,70,-99.99,,,-99.99,,2013-07-30 15:33:00,
2013-07-30 11:43:00,67.0,55.0,30.18,East,92,3.0,-999.0,66,-99.99,,,-99.99,,2013-07-30 15:43:00,
2013-07-30 12:02:00,68.0,56.0,30.17,East,90,1.0,-999.0,66,-99.99,,,-99.99,,2013-07-30 16:02:00,
2013-07-30 12:23:00,69.0,58.0,30.17,ENE,73,3.0,-999.0,67,-99.99,,,-99.99,,2013-07-30 16:23:00,
2013-07-30 12:33:00,70.0,59.0,30.16,East,86,1.0,-999.0,68,-99.99,,,-99.99,,2013-07-30 16:33:00,
2013-07-30 12:44:00,70.0,58.0,30.16,SSE,166,2.0,-999.0,65,-99.99,,,-99.99,,2013-07-30 16:44:00,
2013-07-30 13:02:00,70.0,59.0,30.16,East,86,2.0,-999.0,67,-99.99,,,-99.99,,2013-07-30 17:02:00,
2013-07-30 13:22:00,70.0,59.0,30.15,ENE,78,3.0,-999.0,68,-99.99,,,-99.99,,2013-07-30 17:22:00,
2013-07-30 13:32:00,70.0,59.0,30.15,ENE,78,3.0,-999.0,68,-99.99,,,-99.99,,2013-07-30 17:32:00,
2013-07-30 13:43:00,71.0,59.0,30.16,ENE,70,2.0,-999.0,65,-99.99,,,-99.99,,2013-07-30 17:43:00,
2013-07-30 14:03:00,71.0,59.0,30.15,ENE,74,3.0,-999.0,67,-99.99,,,-99.99,,2013-07-30 18:03:00,
2013-07-30 14:12:00,71.0,59.0,30.15,ENE,74,3.0,-999.0,67,-99.99,,,-99.99,,2013-07-30 18:12:00,
2013-07-30 14:23:00,71.0,59.0,30.15,ENE,74,3.0,-999.0,67,-99.99,,,-99.99,,2013-07-30 18:23:00,
2013-07-30 14:32:00,71.0,60.0,30.14,NE,38,4.0,-999.0,68,-99.99,,,-99.99,,2013-07-30 18:32:00,
2013-07-30 15:03:00,72.0,60.0,30.14,NE,48,3.0,-999.0,66,-99.99,,,-99.99,,2013-07-30 19:03:00,
2013-07-30 15:22:00,72.0,60.0,30.14,East,100,3.0,-999.0,67,-99.99,,,-99.99,,2013-07-30 19:22:00,
2013-07-30 15:33:00,71.0,59.0,30.13,ENE,65,5.0,-999.0,67,-99.99,,,-99.99,,2013-07-30 19:33:00,
2013-07-30 16:02:00,71.0,59.0,30.13,NE,49,7.0,-999.0,67,-99.99,,,-99.99,,2013-07-30 20:02:00,
2013-07-30 16:12:00,72.0,60.0,30.12,NE,54,5.0,-999.0,65,-99.99,,,-99.99,,2013-07-30 20:12:00,
2013-07-30 16:22:00,72.0,60.0,30.12,NE,54,5.0,-999.0,65,-99.99,,,-99.99,,2013-07-30 20:22:00,
2013-07-30 16:33:00,73.0,60.0,30.11,NNE,31,2.0,-999.0,64,-99.99,,,-99.99,,2013-07-30 20:33:00,
2013-07-30 16:43:00,73.0,60.0,30.11,NE,46,2.0,-999.0,64,-99.99,,,-99.99,,2013-07-30 20:43:00,
2013-07-30 16:52:00,73.0,60.0,30.11,NE,46,2.0,-999.0,64,-99.99,,,-99.99,,2013-07-30 20:52:00,
2013-07-30 17:02:00,73.0,59.0,30.10,East,92,4.0,-999.0,62,-99.99,,,-99.99,,2013-07-30 21:02:00,
2013-07-30 17:12:00,73.0,60.0,30.10,ENE,74,3.0,-999.0,63,-99.99,,,-99.99,,2013-07-30 21:12:00,
2013-07-30 17:32:00,74.0,59.0,30.10,East,101,2.0,-999.0,59,-99.99,,,-99.99,,2013-07-30 21:32:00,
2013-07-30 17:42:00,73.0,58.0,30.10,NE,55,4.0,-999.0,60,-99.99,,,-99.99,,2013-07-30 21:42:00,
2013-07-30 17:52:00,73.0,58.0,30.10,NE,55,4.0,-999.0,60,-99.99,,,-99.99,,2013-07-30 21:52:00,
2013-07-30 18:02:00,72.0,59.0,30.09,ENE,74,4.0,-999.0,64,-99.99,,,-99.99,,2013-07-30 22:02:00,
2013-07-30 18:12:00,72.0,59.0,30.09,ENE,65,1.0,-999.0,64,-99.99,,,-99.99,,2013-07-30 22:12:00,
2013-07-30 18:22:00,72.0,59.0,30.09,ENE,65,1.0,-999.0,64,-99.99,,,-99.99,,2013-07-30 22:22:00,
2013-07-30 18:32:00,72.0,59.0,30.09,ESE,102,2.0,-999.0,64,-99.99,,,-99.99,,2013-07-30 22:32:00,
2013-07-30 18:43:00,72.0,60.0,30.09,ENE,72,1.0,-999.0,65,-99.99,,,-99.99,,2013-07-30 22:43:00,
2013-07-30 18:52:00,72.0,60.0,30.08,ENE,77,1.0,-999.0,65,-99.99,,,-99.99,,2013-07-30 22:52:00,
2013-07-30 19:02:00,72.0,60.0,30.08,ENE,77,1.0,-999.0,65,-99.99,,,-99.99,,2013-07-30 23:02:00,
2013-07-30 19:13:00,71.0,59.0,30.08,ENE,76,1.0,-999.0,66,-99.99,,,-99.99,,2013-07-30 23:13:00,
2013-07-30 19:22:00,71.0,59.0,30.08,East,83,1.0,-999.0,66,-99.99,,,-99.99,,2013-07-30 23:22:00,
2013-07-30 19:32:00,71.0,59.0,30.08,East,83,1.0,-999.0,66,-99.99,,,-99.99,,2013-07-30 23:32:00,
2013-07-30 19:42:00,71.0,59.0,30.08,East,84,1.0,-999.0,67,-99.99,,,-99.99,,2013-07-30 23:42:00,
2013-07-30 19:53:00,71.0,61.0,30.08,ENE,75,1.0,-999.0,70,-99.99,,,-99.99,,2013-07-30 23:53:00,
2013-07-30 20:02:00,71.0,61.0,30.08,ENE,75,1.0,-999.0,70,-99.99,,,-99.99,,2013-07-31 00:02:00,
2013-07-30 20:12:00,71.0,61.0,30.08,ENE,70,1.0,-999.0,70,-99.99,,,-99.99,,2013-07-31 00:12:00,
2013-07-30 20:32:00,71.0,61.0,30.08,ENE,70,0.0,-999.0,70,-99.99,,,-99.99,,2013-07-31 00:32:00,
2013-07-30 20:43:00,70.0,60.0,30.08,East,86,0.0,-999.0,71,-99.99,,,-99.99,,2013-07-31 00:43:00,
2013-07-30 20:53:00,70.0,61.0,30.08,East,79,0.0,-999.0,72,-99.99,,,-99.99,,2013-07-31 00:53:00,
2013-07-30 21:02:00,70.0,61.0,30.08,East,79,0.0,-999.0,72,-99.99,,,-99.99,,2013-07-31 01:02:00,
2013-07-30 21:12:00,70.0,61.0,30.08,East,79,0.0,-999.0,72,-99.99,,,-99.99,,2013-07-31 01:12:00,
2013-07-30 21:22:00,70.0,61.0,30.07,ENE,75,0.0,-999.0,72,-99.99,,,-99.99,,2013-07-31 01:22:00,
2013-07-30 21:32:00,69.0,60.0,30.07,ENE,68,0.0,-999.0,72,-99.99,,,-99.99,,2013-07-31 01:32:00,
2013-07-30 21:52:00,69.0,60.0,30.07,ENE,68,0.0,-999.0,74,-99.99,,,-99.99,,2013-07-31 01:52:00,
2013-07-30 22:12:00,69.0,61.0,30.07,ENE,68,0.0,-999.0,75,-99.99,,,-99.99,,2013-07-31 02:12:00,
2013-07-30 22:22:00,69.0,60.0,30.08,East,82,0.0,-999.0,74,-99.99,,,-99.99,,2013-07-31 02:22:00,
2013-07-30 22:32:00,69.0,60.0,30.08,East,82,0.0,-999.0,74,-99.99,,,-99.99,,2013-07-31 02:32:00,
2013-07-30 23:02:00,68.0,62.0,30.08,East,85,0.0,-999.0,82,-99.99,,,-99.99,,2013-07-31 03:02:00,
2013-07-30 23:22:00,68.0,63.0,30.08,East,82,2.0,-999.0,83,-99.99,,,-99.99,,2013-07-31 03:22:00,
2013-07-30 23:32:00,67.0,62.0,30.08,SE,134,1.0,-999.0,84,-99.99,,,-99.99,,2013-07-31 03:32:00,
2013-07-30 23:52:00,67.0,62.0,30.08,SE,137,1.0,-999.0,84,-99.99,,,-99.99,,2013-07-31 03:52:00,